www.pogodaiklimat.ru

Погода и климат >> Архив погоды >> Россия >> Якутия >> Сухана


ПОГОДА в Сухане

  • Прогноз погоды в Сухане
  • Монитор погоды в Сухане
  • Климат города

АРХИВ ПОГОДЫ в Сухане

Время (UTC), дата Ветер
(напр.,м/с)
 
Видим.   Явления Облачность Т
(С)
Тd
(С)
f
(%)
Тe
(С)
Тes
(С)
Комфортность P
(гПа)
Po
(гПа)
Тmin
(С)
Tmax
(С)
R
(мм)
R24
(мм)
S
(см)
06 12.08 Ю 2 50 км в посл. час ливневой дождь 10/10 600 м
[Cb cap]
+17.0 +16.2 95 +17 +17 1005.7 996.7
09 12.08 ЮЗ 1 50 км 3/3 600 м
[Cb cap Ci fib]
+20.3 +15.6 74 +24 +26 комфорт 1006.7 997.7
12 12.08 Ю 2 20 км слабый ливневой дождь 8/8 600 м
[Cb cap]
+19.8 +16.3 80 +23 +23 комфорт 1008.0 999.0 +22.1 1
15 12.08 штиль 0 50 км {ливн. осадки} 1/1 600 м
[Sc diur, vesp]
+14.6 +14.4 99 +14 +14 1008.9 999.8
18 12.08 СЗ 2 50 км дымка {ливн. осадки} 3/3 1000 м
[Cb calv]
+9.2 +9.0 99 +7 +7 1010.8 1001.4
21 12.08 штиль 0 200 м туман ясно +8.8 +8.6 99 +8 +8 1012.4 1003.0
00 13.08 штиль 0 200 м туман 3/3 600 м
[Cb cap]
+11.4 +11.0 97 +11 +14 1013.7 1004.5 +8.8 0.1
03 13.08 Ю 2 50 км {туман} 6/3 600 м
[Cb cap Ac trans]
+22.3 +14.1 60 +26 +29 жарко 1013.1 1004.2
06 13.08 С 1 50 км {туман} 10/10 600 м
[Cb cap]
+21.6 +14.9 66 +25 +25 комфорт 1013.6 1004.7
09 13.08 ЮВ 1 50 км 6/0
[Ci sp]
+24.7 +13.0 48 +27 +29 жарко 1012.4 1003.5
12 13.08 Ю 4 50 км 3/0
[Cs]
+23.9 +12.6 49 +26 +26 жарко 1011.2 1002.3 +25.0
15 13.08 Ю 4 20 км дым 4/0
[Ac As]
+21.1 +12.8 59 +23 +23 комфорт 1010.6 1001.7
18 13.08 Ю 4 20 км дым 4/0
[Ac As]
+20.2 +13.0 63 +22 +22 комфорт 1010.4 1001.3
21 13.08 Ю 2 20 км дым 6/0
[As trans Ci fib]
+18.9 +13.6 71 +20 +21 1009.6 1000.5
00 14.08 Ю 3 20 км дым 3/0
[Ci fib]
+21.4 +11.3 53 +23 +26 комфорт 1009.1 1000.2 +18.9
03 14.08 Ю 3 20 км дым ясно +24.5 +13.8 51 +27 +32 жарко 1009.1 1000.2
06 14.08 Ю 1 10 км дым ясно +27.4 +16.1 50 +31 +38 душно 1008.5 999.8
09 14.08 С 4 20 км дым 3/3 600 м
[Cu med, cong]
+26.4 +16.8 56 +30 +31 душно 1008.5 999.8
12 14.08 С 3 20 км дым 4/0
[Ci fib]
+19.8 +15.1 74 +22 +22 комфорт 1008.8 999.8 +27.8
15 14.08 С 1 50 км 3/0
[As trans]
+15.6 +12.9 84 +16 +16 1009.4 1000.2
18 14.08 С 2 50 км 10/6 600 м
[Cu med, cong Ac cuf]
+15.1 +12.5 84 +15 +15 1008.1 999.0
21 14.08 С 2 50 км 9/6 600 м
[Sc As trans]
+15.1 +12.7 86 +15 +15 1005.8 996.7
00 15.08 штиль 0 20 км слабый ливневой дождь 10/8 600 м
[Cb cap As op]
+14.9 +14.6 98 +15 +15 1004.9 995.8 +14.9 3
03 15.08 В 1 20 км в посл. час гроза {ливн. осадки} 10/10 600 м
[Cb cap]
+17.8 +16.6 93 +19 +19 1002.7 993.7
06 15.08 З 2 50 км {гроза, ливн. осадки} 10/10 300 м
[Cb cap]
+15.9 +15.1 95 +16 +16 1004.8 995.8
09 15.08 С 3 50 км {ливн. осадки} 10/10 300 м
[Cb cap]
+11.7 +8.6 81 +10 +10 1007.8 998.7
12 15.08 С 3 50 км {ливн. осадки} 10/10 600 м
[Cb cap]
+8.7 +7.4 92 +6 +6 1010.9 1001.5 +18.9 3
15 15.08 С 2 50 км 10/10 600 м
[Cb cap]
+7.5 +6.7 95 +5 +5 1013.3 1003.9
18 15.08 С 1 50 км {ливн. осадки} 10/10 600 м
[Sc]
+7.0 +5.9 93 +6 +6 1014.9 1005.5
21 15.08 штиль 0 50 км 10/10 600 м
[Sc]
+6.6 +5.2 91 +6 +6 1016.7 1007.3
00 16.08 СЗ 2 50 км 10/10 600 м
[Sc]
+6.5 +5.1 91 +4 +4 1017.6 1008.2 +6.5 0.2
03 16.08 З 2 50 км 10/10 600 м
[Sc]
+7.8 +5.8 87 +6 +6 1018.3 1008.9
06 16.08 З 3 50 км 9/9 600 м
[Cb cap]
+10.6 +5.3 70 +9 +9 1018.0 1008.6
09 16.08 З 2 50 км 9/9 600 м
[Cb cap]
+11.0 +5.3 68 +10 +10 1017.6 1008.2
12 16.08 З 2 50 км 9/9 600 м
[Cb cap]
+10.5 +6.7 77 +9 +9 1017.6 1008.2 +11.4
15 16.08 Ю 2 50 км ясно +8.3 +5.9 85 +6 +6 1017.5 1008.1
18 16.08 Ю 2 50 км ясно +7.8 +5.8 87 +6 +6 1017.3 1007.9
21 16.08 штиль 0 50 км 3/3 1000 м
[Sc]
+5.9 +5.0 94 +5 +5 1016.5 1006.9
00 17.08 штиль 0 50 км 3/3 1000 м
[Sc]
+9.6 +5.0 73 +9 +12 1015.6 1006.2 +5.5
03 17.08 ЮЗ 3 50 км ясно +15.8 +4.5 47 +15 +21 1013.9 1004.7
06 17.08 ЮЗ 3 50 км 8/8 600 м
[Cu Sc]
+18.2 +5.5 43 +18 +19 1012.4 1003.3
09 17.08 Ю 2 50 км 8/8 600 м
[Cu Sc]
+18.2 +7.8 51 +19 +19 1012.0 1002.9
12 17.08 Ю 2 50 км 6/6 1000 м
[Sc diur, vesp]
+14.4 +8.6 68 +14 +14 1011.9 1002.7 +19.2
15 17.08 штиль 0 50 км ясно +12.3 +7.8 74 +12 +12 1011.4 1002.2
18 17.08 штиль 0 50 км 6/6 1000 м
[Sc]
+5.2 +4.7 97 +4 +4 1011.5 1001.9
21 17.08 штиль 0 50 км 9/9 1000 м
[Sc]
+6.3 +5.6 95 +5 +5 1011.3 1001.7
00 18.08 штиль 0 50 км 9/9 1000 м
[Sc]
+9.7 +7.8 88 +9 +9 1010.9 1001.5 +5.2
03 18.08 Ю 1 50 км 8/5 1000 м
[Sc Ac trans]
+16.5 +8.8 60 +17 +20 1010.1 1001.0
06 18.08 З 3 50 км 8/6 1000 м
[Sc Ac trans]
+18.5 +4.8 40 +19 +20 1009.2 1000.1
09 18.08 З 2 50 км 9/9 1000 м
[Sc]
+18.4 +6.4 45 +19 +19 1008.8 999.8
12 18.08 З 1 50 км 9/9 600 м
[Cb cap]
+16.1 +10.6 70 +17 +17 1008.3 999.3 +20.3
15 18.08 штиль 0 20 км слабый ливневой дождь 9/9 600 м
[Cb cap]
+13.0 +11.3 89 +12 +12 1009.0 999.9
18 18.08 СЗ 3 50 км {ливн. осадки} 9/9 600 м
[Cb cap]
+10.8 +9.7 93 +9 +9 1009.6 1005.2
21 18.08 СЗ 1 20 км слабый дождь 10/10 600 м
[Sc]
+9.3 +8.2 93 +9 +9 1011.2 1001.8
00 19.08 С 1 50 км {дождь} 10/10 600 м
[Sc]
+9.4 +7.6 89 +9 +9 1012.5 1003.1 +9.3 0.8

 

Местоположение метеостанции Сухана (Якутия, Россия): широта 68.62 долгота 118.30 высота над уровнем моря 77 м.

В архиве по умолчанию представлена погода в Сухане за последнюю неделю. Архивные данные за месяц целиком и за предыдущие месяцы, начиная с января 2011 года, Вы можете получить, выбрав интересующий диапазон дат из раскрывающегося списка и нажав кнопку "Ввод!".

Внимание! Время в таблицах - всемирное. Для получения местного времени необходимо прибавить поправку, которая в Сухане равна 9 ч.

Смотрите также архив погоды в соседних городах и на ближайших метеорологических станциях:

Погода в Джарджане (Якутия, Россия) (231 км)
Погода в Оленеке (Якутия, Россия) (240 км)
Погода в Джалинде (Якутия, Россия) (241 км)
Погода в Эйке (Якутия, Россия) (291 км)
Погода в Жиганске (Якутия, Россия) (294 км)
Погода в Шелагонцах (Якутия, Россия) (316 км)
Погода в Полярном (Якутия, Россия) (326 км)
Погода в Саскылахе (Якутия, Россия) (406 км)
Погода в Тюмяти (Якутия, Россия) (415 км)
Погода в Кюсюре (Якутия, Россия) (419 км)

Пояснения к столбцам:

Ветер - указаны скорость ветра в м/с - средняя за 10 мин, порывы в срок и между сроками (в фигурных скобках) и направление, откуда дует ветер: С - северный, СВ - северо-восточный, В - восточный, ЮВ - юго-восточный, Ю - южный, ЮЗ - юго-западный, З - западный, СЗ - северо-западный.
Видимость - горизонтальная дальность видимости в метрах или километрах. При видимости от 1 до 10 км при отсутствии осадков обычно наблюдается дымка, при ухудшении видимости до 1 км и менее - туман. В сухую погоду видимость может ухудшаться дымом, пылью или мглою.
Явления - указаны атмосферные явления, наблюдавшиеся в срок или в последний час перед сроком; фигурными скобками обозначены явления, наблюдавшиеся между сроками (за 1-3 часа до срока); квадратными скобками обозначены град или гололедные отложения с указанием их диаметра в мм.
Облачность - указаны через наклонную черту общая и нижняя облачность в баллах и высота нижней границы облаков в метрах; квадратными скобками обозначены формы облаков: Ci - перистые, Cs - перисто-слоистые, Cc - перисто-кучевые, Ac - высококучевые, As - высокослоистые, Sc - слоисто-кучевые, Ns - слоисто-дождевые, Cu - кучевые, Cb - кучево-дождевые. Подробнее классификацию облаков см. в Атласе облаков (PDF).
T - Температура воздуха - температура, измеренная на высоте 2 м над землей.
Td - Температура точки росы - температура, при понижении до которой содержащийся в воздухе водяной пар достигнет насыщения.
f - Относительная влажность воздуха - влажноcть воздуха, измеренная на высоте 2 м над землей.
Te - Эффективная температура - температура, которую ощущает одетый по сезону человек в тени. Характеристика душности погоды. При расчете учитывается влияние влажности воздуха и скорости ветра на теплоощущения человека.
Tes - Эффективная температура на солнце - температура, которую ощущает человек, с поправкой на солнечный нагрев. Характеристика знойности погоды. Зависит от высоты солнца над горизонтом, облачности и скорости ветра. Ночью, в пасмурную погоду, а также при ветре 12 м/с и более поправка равна нулю.
P - Атмосферное давление - приведенное к уровню моря атмосферное давление.
Po - Атмосферное давление - измеренное на уровне метеостанции атмосферное давление.
Tmin - Минимальная температура - минимум температуры воздуха на высоте 2 м над землей.
Tmax - Максимальная температура - максимум температуры воздуха на высоте 2 м над землей.
R - Количество осадков - Количество выпавших осадков за период времени, мм. При наведении курсора мыши на число - период времени, за который выпало указанное количество осадков.
R24 - Количество осадков - Количество выпавших осадков за 24 часа, мм.
S - Снежный покров - Высота снежного покрова, см. При наведении курсора мыши на число - состояние снежного покрова и степень покрытия местности в баллах.